Weather in Pivnichne

Ukraine / Donetsk Region     48°23′19″N   37°54′23″E
temp.,
°C
wind,
m/s
gust,
m/s
humid.,
%
clouds,
%
prec.,
mm/h
press.,
hPa
HPBL,
m
16 april, fri
fri1600:00+8ssw37774 0.0 1016204
03:00+7s37854 0.0 1016215
06:00+5s368811 0.0 1017174
09:00+9s57659 0.0 1017929
12:00+13ssw574935 0.0 10171726
15:00+14wsw584218 0.0 10171893
18:00+13sw575041 0.0 1017983
21:00+9ssw376526 0.0 1018216
17 april, sat
sat1700:00+7ssw367940 0.0 1018156
03:00+6sw368786 0.0 1019167
06:00+4wsw36954 0.0 1019173
09:00+8w35595 0.0 1020865
12:00+10wsw675788 0.0 10211445
15:00+11wsw6851100 0.0 10211730
18:00+10wsw4759100 0.0 1021855
21:00+9sw2363100 0.0 1022115
18 april, sun
sun1800:00+9ssw225990 0.0 102151
03:00+8wsw2369100 0.0 102170
06:00+8s117286 0.0 102126
09:00+12sse555355 0.0 1020951
12:00+14sse444178 0.0 10191733
15:00+16se443562 0.0 10182264
18:00+15se454030 0.0 10181669
21:00+12se345299 0.0 1018164
19 april, mon
mon1900:00+12ssw1161100 0.0 1017102
03:00+11ese3570100 0.0 1017269
06:00+10e4785100 0.6 1016497
09:00+9e4791100 2.9 1015452
12:00+10e4794100 1.3 1014434
15:00+11ese3592100 1.6 1012518
18:00+12e2595100 0.0 1011291
21:00+12ese4896100 0.8 1009277
20 april, tue
tue2000:00+13se51397100 2.6 1006588
03:00+13se61395100 6.2 1003452
06:00+13se51285100 3.7 1000806
09:00+13sse8148885 4.0 998660
12:00+16s101464100 0.9 10001438
15:00+16s1218571 0.9 10001613
18:00+11s11167172 0.1 10011339
21:00+10ssw111779100 0.4 10021647